[Date Prev][Date Next][Thread Prev][Thread Next] - [Date Index][Thread Index][Author Index]
2 Line ISS Keps 1-20
- Subject: [sarex] 2 Line ISS Keps 1-20
- From: "Dave Larsen PhD" <doc@xxxxxxxxxxx>
- Date: Thu, 19 Jan 2006 18:39:35 -0800
ISS
1 25544U 98067A 06019.84784722 .00008548 00000-0 62646-4 0 1847
2 25544 051.6429 230.2519 0010332 172.1009 015.7627 15.74100697409786
----
Via the sarex mailing list at AMSAT.ORG courtesy of AMSAT-NA.
To unsubscribe, send "unsubscribe sarex" to Majordomo@amsat.org
AMSAT Home